This demonstration page uses our WeatherBlox Daily Observations layout. Learn more.

36.17497, -115.13722

Hourly Observations for August 1, 2015

Temp ( °F °C ) Dew Point ( °F °C ) Humidity (%) Winds ( mph kmh ) Pressure ( in mb ) Visibility ( mi km ) Precip ( " mm )
12:53 am 00:53 Clear 92 33.3 54 12.2 28 28 Calm 29.88 1012 10 16.0934 0 0
1:53 am 01:53 Clear 91 32.8 54 12.2 28 28 Calm 29.88 1012 10 16.0934 0 0
2:53 am 02:53 Clear 90 32.2 55 12.8 31 31 Calm 29.87 1012 10 16.0934 0 0
3:53 am 03:53 Clear 90 32.2 55 12.8 31 31 Calm 29.87 1012 10 16.0934 0 0
4:53 am 04:53 Clear 88 31.1 54 12.2 31 31 E 6 9 29.87 1012 10 16.0934 0 0
5:53 am 05:53 Sunny 87 30.6 53 11.7 31 31 ESE 6 9 29.89 1012 10 16.0934 0 0
6:53 am 06:53 Sunny 89 31.7 55 12.8 31 31 ENE 5 7 29.91 1013 10 16.0934 0 0
7:53 am 07:53 Mostly Sunny 89 31.7 57 13.9 34 34 SE 6 9 29.93 1014 10 16.0934 0 0
8:53 am 08:53 Mostly Sunny 91 32.8 58 14.4 33 33 ESE 12 19 29.94 1014 10 16.0934 0 0
9:53 am 09:53 Mostly Cloudy 91 32.8 59 15 34 34 ESE 9 15 29.94 1014 10 16.0934 0 0
10:53 am 10:53 Mostly Cloudy with Light Rain 88 31.1 61 16.1 40 40 S 16 26 29.96 1015 10 16.0934 0 0.0254
11:49 am 11:49 Cloudy 84 29 61 16 45 45 SE 12 19 29.88 1012 10 16.0934 0 0.0254
11:53 am 11:53 Cloudy 84 28.9 61 16.1 46 46 ESE 12 19 30.01 1016 10 16.0934 0 0.0254
12:53 pm 12:53 Cloudy with Light Rain 79 26.1 65 18.3 62 62 NNW 13 20 30.04 1017 10 16.0934 0 0.0254
1:53 pm 13:53 Mostly Cloudy with Light Rain 78 25.6 66 18.9 67 67 NW 17 28 30 1016 10 16.0934 0 0.0254
2:53 pm 14:53 Cloudy with Light Rain 78 25.6 65 18.3 64 64 NW 15 24 29.98 1015 10 16.0934 0 0.0254
3:53 pm 15:53 Partly Cloudy with Light Rain 78 25.6 66 18.9 67 67 N 5 7 29.96 1015 10 16.0934 0 0.0254
4:53 pm 16:53 Mostly Cloudy 80 26.7 64 17.8 58 58 NNW 13 20 29.93 1014 10 16.0934 0 0.0254
5:53 pm 17:53 Mostly Cloudy 81 27.2 60 15.6 49 49 NNW 21 33 29.91 1013 10 16.0934 0 0.0254
6:53 pm 18:53 Sunny 83 28.3 58 14.4 43 43 NNW 16 26 29.89 1012 10 16.0934 0 0
7:53 pm 19:53 Clear 84 28.9 55 12.8 37 37 NNW 16 26 29.87 1012 10 16.0934 0 0
8:53 pm 20:53 Clear 81 27.2 58 14.4 45 45 N 13 20 29.89 1012 10 16.0934 0 0
9:53 pm 21:53 Clear 82 27.8 59 15 46 46 N 12 19 29.89 1012 10 16.0934 0 0
10:53 pm 22:53 Mostly Clear 82 27.8 59 15 46 46 N 12 19 29.89 1012 10 16.0934 0 0
11:53 pm 23:53 Clear 81 27.2 59 15 47 47 NNW 14 22 29.9 1013 10 16.0934 0 0

Powered by AerisWeather